Simultaneous Nadir Overpasses (SNOs) Predictions

Prediction of SNOs between GOES-17 and NOAA-20 Satellite Orbit:

Table of predicted SNOs for the next 14.0 days since TLE Epoch: 12/25/2021
Index Date Time (GOES-17) GOES-17 Lat,Lon NOAA-20 Lat,Lon Distance(km) Time Diff (sec)
1 12/25/2021 10:36:21 -0.02,-137.21 0.23,-138.23 116.01 80
2 12/26/2021 10:20:15 -0.02,-137.21 -0.80,-133.69 400.90 80
3 12/27/2021 22:39:30 0.02,-137.20 -0.36,-138.99 203.57 80
4 12/28/2021 22:23:24 0.02,-137.20 0.61,-134.45 313.06 80
5 12/30/2021 10:42:30 -0.01,-137.19 0.56,-139.71 287.27 80
6 12/31/2021 10:26:25 -0.01,-137.18 -0.47,-135.18 228.68 80
7 01/01/2022 22:45:39 -0.00,-137.15 -0.74,-140.46 377.55 80
8 01/02/2022 22:29:34 -0.01,-137.14 0.29,-135.93 137.98 80
9 01/04/2022 10:51:19 0.01,-137.12 0.93,-141.18 463.63 80
10 01/05/2022 10:29:53 0.01,-137.10 -0.10,-136.65 51.51 80
11 01/07/2022 22:33:02 -0.01,-137.05 -0.07,-137.41 40.49 80
